Weather History for Burlington, NC

Change the Weather History Date:

Sunday, January 13, 2013

  Actual Average Record
Temperature  
Mean Temperature 60 °F -  
Max Temperature 73 °F 48 °F - (-1)
Min Temperature 46 °F 26 °F - (-1)
Degree Days  
Heating Degree Days 6    
Growing Degree Days 10 (Base 50)    
Moisture  
Dew Point 53 °F    
Average Humidity 86    
Maximum Humidity 100    
Minimum Humidity 57    
Precipitation  
Precipitation 0.01 in - - ()
Sea Level Pressure  
Sea Level Pressure 30.08 in    
Wind  
Wind Speed 2 mph (SSW)    
Max Wind Speed 14 mph    
Max Gust Speed 21 mph    
Visibility 5 miles    
Events Fog    
Averages and records for this station are not official NWS values.
T = Trace of Precipitation, MM = Missing Value Source: NWS Daily Summary

Daily Weather History Graph

Daily Weather History Graph

Search for Another Location

Airport:

Trip Planner

Search our weather history database for the weather conditions in past years. The results will help you decide how hot, cold, wet, or windy it might be!

Date:

Astronomy

Jan. 13, 2013 Rise Set
Actual Time 7:28 AM EST 5:25 PM EST
Civil Twilight 7:00 AM EST 5:53 PM EST
Nautical Twilight 6:28 AM EST 6:25 PM EST
Astronomical Twilight 5:57 AM EST 6:55 PM EST
Moon 8:30 AM EST (1/13) 7:55 PM EST (1/13)
Length of Visible Light 10h 53m
Length of Day
9h 57m
Waxing Crescent, 5% of the Moon is Illuminated
Jan 13
Waxing Crescent
Jan 18
First Quarter
Jan 26
Full
Feb 3
Last Quarter
Feb 10
New

Hourly Weather History & Observations

Time (EST) Temp. Dew Point Humidity Pressure Visibility Wind Dir Wind Speed Gust Speed Precip Events Conditions
12:54 AM 50.0 °F 48.9 °F 96% 30.09 in 0.2 mi Calm Calm - N/A Fog Fog
1:54 AM 50.0 °F 50.0 °F 100% 30.10 in 0.2 mi Calm Calm - N/A Fog Fog
2:32 AM 50.0 °F 48.2 °F 94% 30.10 in 0.5 mi Calm Calm - N/A Fog Fog
2:54 AM 48.9 °F 48.0 °F 97% 30.09 in 0.5 mi Calm Calm - N/A Fog Fog
3:06 AM 48.2 °F 48.2 °F 100% 30.10 in 0.2 mi Calm Calm - 0.01 in Fog Fog
3:48 AM 50.0 °F 48.2 °F 94% 30.09 in 0.5 mi Calm Calm - 0.01 in Fog Fog
3:54 AM 50.0 °F 48.9 °F 96% 30.08 in 0.5 mi Calm Calm - 0.01 in Fog Fog
4:20 AM 48.2 °F 48.2 °F 100% 30.08 in 0.5 mi Calm Calm - N/A Fog Fog
4:32 AM 48.2 °F 48.2 °F 100% 30.08 in 0.2 mi Calm Calm - N/A Fog Fog
4:54 AM 50.0 °F 50.0 °F 100% 30.07 in 0.2 mi Calm Calm - N/A Fog Fog
5:14 AM 48.2 °F 48.2 °F 100% 30.07 in 0.5 mi Calm Calm - N/A Fog Fog
5:54 AM 48.0 °F 46.9 °F 96% 30.07 in 0.2 mi Calm Calm - N/A Fog Fog
6:54 AM 48.0 °F 48.0 °F 100% 30.10 in 0.2 mi Calm Calm - N/A Fog Fog
7:54 AM 46.9 °F 46.0 °F 97% 30.11 in 0.2 mi Calm Calm - N/A Fog Fog
8:35 AM 51.8 °F 51.8 °F 100% 30.11 in 0.5 mi Calm Calm - N/A Fog Fog
8:47 AM 53.6 °F 53.6 °F 100% 30.11 in 2.0 mi Calm Calm - N/A   Scattered Clouds
8:54 AM 55.0 °F 55.0 °F 100% 30.11 in 4.0 mi Calm Calm - N/A   Partly Cloudy
9:54 AM 61.0 °F 57.9 °F 90% 30.13 in 10.0 mi SW 3.5 mph - N/A   Clear
10:54 AM 66.0 °F 59.0 °F 78% 30.11 in 10.0 mi SW 6.9 mph - N/A   Clear
11:54 AM 71.1 °F 59.0 °F 66% 30.08 in 10.0 mi WSW 13.8 mph 20.7 mph N/A   Clear
12:54 PM 73.0 °F 59.0 °F 61% 30.05 in 10.0 mi SSW 10.4 mph 17.3 mph N/A   Partly Cloudy
1:54 PM 73.0 °F 59.0 °F 61% 30.04 in 10.0 mi SW 6.9 mph - N/A   Overcast
2:54 PM 73.9 °F 57.9 °F 57% 30.04 in 10.0 mi SSW 10.4 mph - N/A   Scattered Clouds
3:54 PM 73.0 °F 57.0 °F 57% 30.05 in 10.0 mi SSW 9.2 mph - N/A   Partly Cloudy
4:54 PM 72.0 °F 57.0 °F 59% 30.06 in 10.0 mi SSW 8.1 mph - N/A   Clear
5:54 PM 68.0 °F 57.9 °F 70% 30.06 in 10.0 mi Calm Calm - N/A   Clear
7:54 PM 64.9 °F 57.0 °F 75% 30.06 in 10.0 mi South 4.6 mph - N/A   Clear
8:54 PM 66.0 °F 57.9 °F 75% 30.05 in 10.0 mi South 10.4 mph - N/A   Clear
9:54 PM 66.0 °F 57.9 °F 75% 30.06 in 10.0 mi South 6.9 mph - N/A   Clear
10:54 PM 64.9 °F 57.9 °F 78% 30.06 in 10.0 mi South 6.9 mph - N/A   Clear
11:54 PM 64.0 °F 57.9 °F 80% 30.07 in 10.0 mi South 6.9 mph - N/A   Clear